Regional Weather Roundup
Issued by NWS

Home | Current Version | Previous Version | Text Only | Print | Product List | Glossary Off
Versions: 1 2 3 4 5 6 7 8 9 10 11 12 13 14 15 16 17 18 19 20 21 22 23 24 25 26 27 28 29 30 31 32 33 34 35 36 37 38 39 40 41 42 43 44 45 46 47 48 49 50

939
ASUS45 KPSR 122010
RWRAZ

ARIZONA HOURLY REGIONAL WEATHER ROUNDUP
NATIONAL WEATHER SERVICE PHOENIX AZ
100 PM MST TUE DEC 12 2017

NOTE: FAIR INDICATES FEW OR NO CLOUDS BELOW 12,000 FEET WITH NO
SIGNIFICANT WEATHER AND/OR OBSTRUCTIONS TO VISIBILITY.

AZZ001>003-036-122100-
NORTHWEST ARIZONA

CITY           SKY/WX    TMP DP  RH WIND       PRES   REMARKS
BULLHEAD CITY  SUNNY     70  -2   6 N25G37    30.19F
KINGMAN        SUNNY     62   3   9 N10       30.29F
$$

AZZ004>008-015-016-018-122100-
NORTH CENTRAL ARIZONA

CITY           SKY/WX    TMP DP  RH WIND       PRES   REMARKS
GRAND CANYON   SUNNY     56   7  14 NE17      30.42F
WILLIAMS       SUNNY     61   0   8 CALM      30.36F
PRESCOTT       SUNNY     61   0   8 CALM      30.33F
FLAGSTAFF      SUNNY     53   1  12 E10       30.40F
PAYSON         SUNNY     63 -11   5 S8        30.32F
PAGE           SUNNY     44  15  31 NE5       30.44F
$$

AZZ009>014-017-122100-
NORTHEAST ARIZONA

CITY           SKY/WX    TMP DP  RH WIND       PRES   REMARKS
WINSLOW        SUNNY     46  -1  14 CALM      30.42F
SAINT JOHNS    SUNNY     47  -3  12 VRB5      30.38F
WINDOW ROCK    SUNNY     55  -2   9 W3        30.40F
SHOW LOW       SUNNY     46  -4  12 VRB3      30.41F
$$

AZZ540-542>544-546-548-122100-
GREATER PHOENIX AREA

CITY           SKY/WX    TMP DP  RH WIND       PRES   REMARKS
PHOENIX        PTSUNNY   73   5   7 E9        30.15F
BUCKEYE        SUNNY     72  66  83 E12       30.16F
GLENDALE       PTSUNNY   72   9   8 CALM      30.18F
LUKE AFB       MOSUNNY   70   6   8 CALM      30.15F
DEER VALLEY    MOSUNNY   76  -4   4 E13       30.16F
SCOTTSDALE     MOSUNNY   75  10   8 E8        30.18F
MESA-FALCON    MOSUNNY   75   7   7 E6        30.17F
MESA-GATEWAY   MOSUNNY   68  18  14 W6        30.18
CHANDLER       PTSUNNY   70   9   9 CALM      30.17F
$$

AZZ539-553-122100-
SOUTHWEST MARICOPA COUNTY AND PINAL COUNTY

CITY           SKY/WX    TMP DP  RH WIND       PRES   REMARKS
CASA GRANDE    NOT AVBL
GILA BEND      PTSUNNY   72  10   9 E10       30.14F
$$

AZZ503-504-507>509-122100-
SOUTHEAST ARIZONA

CITY           SKY/WX    TMP DP  RH WIND       PRES   REMARKS
TUCSON         CLOUDY    70   8   9 E18G32    30.20F
DAVIS-MONTHAN  CLOUDY    69   6   8 NE13      30.17F
RYAN FIELD     SUNNY     70   9   9 E23       30.19F
NOGALES        PTSUNNY   66  18  15 E12       30.20F
SIERRA VISTA   MOSUNNY   61  13  15 E14       30.28F
DOUGLAS        SUNNY     64  11  12 E15       30.26F
SAFFORD        PTSUNNY   64   6  10 E15G22    30.31F
$$

AZZ532-122100-
SOUTHWEST ARIZONA

CITY           SKY/WX    TMP DP  RH WIND       PRES   REMARKS
YUMA           MOSUNNY   76   1   5 N13       30.14F
$$

CAZ041-043-047-048-061-525>527-560>570-122100-
SOUTHERN CALIFORNIA

CITY           SKY/WX    TMP DP  RH WIND       PRES   REMARKS
DOWNTOWN L.A.  SUNNY     79   8   6 CALM      30.11F
L.A. AIRPORT   MOSUNNY   82   2   4 CALM      30.12F
SAN DIEGO      SUNNY     77  10   7 NW7       30.12F
BURBANK        SUNNY     78   8   7 CALM      30.14F
ONTARIO        MOSUNNY   76   3   6 W5        30.14F
RIVERSIDE      SUNNY     82   2   4 E7        30.12F
PALM SPRINGS   SUNNY     82  -8   3 SE3       30.17F
EL CENTRO NAS  MOSUNNY   74   1   6 W3        30.17F
IMPERIAL       SUNNY     74   9   8 CALM      30.15F
BLYTHE         SUNNY     69   6   8 VRB3      30.19F
NEEDLES        SUNNY     72   0   6 N12       30.22F
$$

NVZ020-UTZ003-122100-
SOUTHERN NEVADA-UTAH

CITY           SKY/WX    TMP DP  RH WIND       PRES   REMARKS
LAS VEGAS      SUNNY     63   0   8 CALM      30.29F
SALT LAKE CITY LGT SNOW  24  23  96 CALM      30.54F FOG
$$

NMZ009-TXZ055-122100-
NEW MEXICO-WEST TEXAS

CITY           SKY/WX    TMP DP  RH WIND       PRES   REMARKS
ALBUQUERQUE    SUNNY     50   3  14 S3        30.41F
EL PASO        SUNNY     57  14  18 E7        30.39F
$$


........................KEY........................
SKY/WX - SKY CONDITION/WEATHER
TMP    - TEMPERATURE IN FAHRENHEIT
DP     - DEW POINT IN FAHRENHEIT
RH     - RELATIVE HUMIDITY IN PERCENT
WIND   - DIRECTION AND SPEED IN MILES PER HOUR (MPH)
VRB    - VARIABLE WIND DIRECTION
PRES   - MEAN SEA LEVEL PRESSURE IN INCHES OF MERCURY
         F - FALLING PRESSURE   R - RISING PRESSURE
         S - STEADY PRESSURE
VSB    - VISIBILITY IN MILES
HX     - HEAT INDEX IN FAHRENHEIT
WCI    - WIND CHILL INDEX IN FAHRENHEIT
TC     - TEMPERATURE IN CELSIUS WHICH IS ALSO KNOWN AS
         TEMPERATURE IN CENTIGRADE
AFB    - AIR FORCE BASE
         LUKE AFB IS LUKE AIR FORCE BASE
         DAVIS-MONTHAN IS DAVIS-MONTHAN AIR FORCE BASE
NAS    - NAVAL AIR STATION
         EL CENTRO NAS IS EL CENTRO NAVAL AIR STATION
N/A    - NOT AVAILABLE





USA.gov is the U.S. government's official web portal to all federal, state and local government web resources and services.